DW0156 Weather Reports


time (UTC)temp
C
wind
direction
speed
KPH
gust
KPH
rain 1hr
cm
rain 24hr
cm
rain mn
cm
humidity
%
barometer
mb
20260904071346 20 263 3.2 12.9 0.00 0.13 0.13 73 1009.1
20260904070827 20 263 4.8 12.9 0.00 0.13 0.13 73 1009.1
20260904070315 20 263 4.8 12.9 0.00 0.13 0.13 73 1009.1
20260904065757 19 263 3.2 12.9 0.00 0.13 0.13 72 1009.1
20260904064619 20 263 3.2 9.7 0.00 0.13 0.13 71 1009.1
20260904064119 20 263 3.2 17.7 0.00 0.13 0.13 70 1009.2
20260904063617 20 263 4.8 17.7 0.00 0.13 0.13 69 1009.2
20260904063100 20 263 6.4 17.7 0.00 0.13 0.13 68 1009.2
20260904061933 20 263 6.4 22.5 0.00 0.13 0.13 68 1009.3
20260904061423 20 263 6.4 22.5 0.00 0.13 0.13 68 1009.3
20260904060914 20 263 6.4 22.5 0.00 0.13 0.13 68 1009.4
20260904060417 20 263 6.4 22.5 0.00 0.13 0.13 68 1009.4
20260904055913 20 263 4.8 16.1 0.00 0.13 0.13 69 1009.4
20260904055408 20 263 4.8 16.1 0.00 0.13 0.13 69 1009.6
20260904054855 20 263 3.2 16.1 0.00 0.13 0.13 69 1009.6
20260904054357 20 263 3.2 16.1 0.00 0.13 0.13 70 1009.9
20260904053840 19 263 4.8 16.1 0.00 0.13 0.13 69 1009.9
20260904053323 19 263 4.8 16.1 0.00 0.13 0.13 70 1009.9
20260904052145 19 263 4.8 19.3 0.00 0.13 0.13 72 1010.0
20260904051649 18 263 8.0 19.3 0.00 0.13 0.13 72 1010.0
20260904050520 18 263 4.8 17.7 0.00 0.13 0.13 73 1010.6
20260904050018 18 263 1.6 14.5 0.00 0.13 0.13 74 1010.6
20260904045502 18 263 1.6 14.5 0.00 0.13 0.13 74 1010.5
20260904044952 18 263 3.2 17.7 0.00 0.13 0.13 73 1010.5
20260904044455 18 263 4.8 17.7 0.00 0.13 0.13 71 1010.5
20260904043952 18 263 4.8 17.7 0.00 0.10 0.10 68 1010.7
20260904042825 18 263 6.4 17.7 0.00 0.10 0.10 69 1010.7
20260904042329 18 263 6.4 17.7 0.00 0.10 0.10 69 1010.7
20260904041817 18 263 6.4 16.1 0.00 0.10 0.10 69 1010.7
20260904041304 18 263 6.4 17.7 0.00 0.10 0.10 69 1011.6
20260904040802 18 263 6.4 17.7 0.00 0.10 0.10 70 1011.6
20260904040258 18 263 6.4 17.7 0.00 0.10 0.10 70 1011.6
20260904035752 18 263 6.4 17.7 0.00 0.10 0.10 71 1011.5
20260904035253 18 263 8.0 20.9 0.00 0.10 0.10 71 1011.5
20260904034739 18 263 8.0 20.9 0.00 0.10 0.10 72 1011.5
20260904034229 18 263 8.0 20.9 0.00 0.10 0.10 75 1011.7
20260904033738 17 263 6.4 20.9 0.00 0.10 0.10 75 1011.7
20260904033231 17 263 4.8 19.3 0.00 0.10 0.10 78 1011.7
20260904032113 16 263 4.8 9.7 0.00 0.10 0.10 81 1012.3
20260904031617 16 263 3.2 11.3 0.00 0.10 0.10 83 1012.3
20260904031058 16 263 3.2 11.3 0.00 0.10 0.10 84 1012.9
20260904030550 15 263 3.2 14.5 0.00 0.08 0.08 84 1012.9
20260904030051 15 263 4.8 14.5 0.00 0.08 0.08 83 1012.9
20260904025543 15 263 4.8 20.9 0.00 0.08 0.08 82 1012.9
20260904025033 15 263 4.8 20.9 0.00 0.08 0.08 83 1012.9
20260904024543 15 263 6.4 20.9 0.00 0.08 0.08 82 1012.9
20260904023417 15 263 6.4 17.7 0.00 0.08 0.08 84 1013.7
20260904022239 15 263 4.8 20.9 0.08 0.08 0.08 84 1013.9
20260904021726 15 263 8.0 20.9 0.10 0.08 0.08 83 1013.9
20260904020606 15 263 3.2 17.7 0.00 0.05 0.08 79 1015.9
20260904020057 15 263 4.8 17.7 0.00 0.05 0.05 78 1015.9
20260904015558 15 263 6.4 17.7 0.00 0.05 0.05 77 1014.9
20260904015102 15 263 6.4 17.7 0.08 0.05 0.05 77 1014.9
20260904014603 15 263 6.4 17.7 0.13 0.05 0.05 75 1014.9
20260904014106 15 263 6.4 17.7 0.36 0.05 0.05 74 1015.3
20260904013547 16 263 6.4 16.1 0.23 0.00 0.03 72 1015.3
20260904013043 16 263 8.0 20.9 0.00 0.00 0.00 70 1015.3
20260904012541 16 263 8.0 20.9 0.00 0.00 0.00 68 1015.4
20260904012043 16 263 9.7 27.4 0.00 0.00 0.00 66 1015.4
20260904010933 17 263 9.7 27.4 0.00 0.00 0.00 64 1015.4
20260904010441 17 263 8.0 27.4 0.00 0.00 0.00 64 1015.4
20260904005926 17 263 8.0 22.5 0.00 0.00 0.00 64 1015.4
20260904005418 17 263 9.7 22.5 0.00 0.00 0.00 64 1015.9
20260904004239 17 263 6.4 22.5 0.00 0.00 0.00 64 1016.0
20260904003749 17 263 8.0 22.5 0.00 0.00 0.00 64 1016.0
20260904003250 17 263 9.7 22.5 0.00 0.00 0.00 64 1016.0
20260904002744 17 263 8.0 22.5 0.00 0.00 0.00 64 1016.1
20260904001611 17 263 6.4 19.3 0.00 0.00 0.00 63 1016.1
20260904001055 17 263 8.0 19.3 0.00 0.00 0.00 63 1015.9
20260904000544 17 263 8.0 19.3 0.00 0.00 0.00 63 1015.9
20260903234747 17 263 4.8 17.7 0.00 0.00 0.00 64 1015.9
20260903234235 17 263 6.4 17.7 0.00 0.00 0.00 64 1015.9
20260903233734 17 263 4.8 17.7 0.00 0.00 0.00 64 1015.9
20260903233221 17 263 4.8 14.5 0.00 0.00 0.00 66 1015.9
20260903232111 16 263 4.8 14.5 0.00 0.00 0.00 67 1016.2
20260903231609 16 263 4.8 14.5 0.00 0.00 0.00 68 1016.2
20260903231053 16 263 4.8 14.5 0.00 0.00 0.00 68 1016.2
20260903225913 15 263 3.2 12.9 0.00 0.00 0.00 69 1016.2
20260903225402 15 263 3.2 12.9 0.00 0.00 0.00 69 1016.4
20260903224909 15 263 3.2 9.7 0.00 0.00 0.00 69 1016.4
20260903224351 15 263 3.2 9.7 0.00 0.00 0.00 69 1015.9
20260903223858 15 263 3.2 14.5 0.00 0.00 0.00 70 1015.9
20260903223341 15 263 3.2 14.5 0.00 0.00 0.00 70 1015.9
20260903222834 15 263 4.8 14.5 0.00 0.00 0.00 70 1016.3
20260903222337 15 263 4.8 14.5 0.00 0.00 0.00 70 1016.3
20260903221150 15 263 3.2 14.5 0.00 0.00 0.00 70 1016.0
20260903220641 15 263 3.2 9.7 0.00 0.00 0.00 71 1016.0
20260903215521 15 263 3.2 9.7 0.00 0.00 0.00 72 1016.0
20260903215027 14 263 3.2 9.7 0.00 0.00 0.00 72 1016.0
20260903214529 14 263 3.2 8.0 0.00 0.00 0.00 72 1016.0
20260903214010 14 263 3.2 9.7 0.00 0.00 0.00 73 1015.6
20260903213455 14 263 3.2 9.7 0.00 0.00 0.00 73 1015.6
20260903212957 14 263 3.2 9.7 0.00 0.00 0.00 73 1015.6
20260903212455 14 263 3.2 9.7 0.00 0.00 0.00 74 1015.8
20260903211946 14 263 3.2 9.7 0.00 0.00 0.00 74 1015.8
20260903211443 13 263 3.2 9.7 0.00 0.00 0.00 75 1015.8
20260903210933 13 263 3.2 12.9 0.00 0.00 0.00 75 1015.7
20260903210439 13 263 3.2 12.9 0.00 0.00 0.00 75 1015.7
20260903205927 13 263 3.2 12.9 0.00 0.00 0.00 76 1015.7
20260903205413 13 263 3.2 12.9 0.00 0.00 0.00 76 1015.9
20260903204912 13 263 4.8 12.9 0.00 0.00 0.00 77 1015.9
20260903203726 13 263 4.8 16.1 0.00 0.00 0.00 78 1016.1
20260903203234 13 263 4.8 16.1 0.00 0.00 0.00 79 1016.1
20260903202103 13 263 4.8 16.1 0.00 0.00 0.00 80 1016.2
20260903200930 13 263 4.8 16.1 0.00 0.00 0.00 82 1016.5
20260903200411 13 263 4.8 16.1 0.00 0.00 0.00 82 1016.5
20260903195913 13 263 4.8 14.5 0.00 0.00 0.00 83 1016.5
20260903195410 12 263 4.8 14.5 0.00 0.00 0.00 84 1016.5
20260903194913 12 263 4.8 14.5 0.00 0.00 0.00 84 1016.5
20260903194423 12 263 4.8 14.5 0.00 0.00 0.00 84 1016.5
20260903193309 12 263 3.2 6.4 0.00 0.00 0.00 85 1017.0
20260903192804 12 263 3.2 6.4 0.00 0.00 0.00 85 1017.0
20260903192258 12 263 1.6 6.4 0.00 0.00 0.00 85 1017.0
20260903191807 12 263 1.6 6.4 0.00 0.00 0.00 85 1017.0
20260903191303 12 263 1.6 6.4 0.00 0.00 0.00 85 1016.8
20260903190749 12 263 1.6 6.4 0.00 0.00 0.00 85 1016.8
20260903190241 12 263 1.6 8.0 0.00 0.00 0.00 85 1016.8
20260903184500 11 263 1.6 6.4 0.00 0.00 0.00 85 1016.5
20260903183948 11 263 1.6 4.8 0.00 0.00 0.00 84 1016.8
20260903183428 11 263 1.6 6.4 0.00 0.00 0.00 84 1016.8
20260903182927 11 263 1.6 6.4 0.00 0.00 0.00 84 1016.8
20260903182414 11 263 1.6 6.4 0.00 0.00 0.00 84 1017.4
20260903181908 11 263 1.6 6.4 0.00 0.00 0.00 83 1017.4
20260903181402 11 263 0.0 3.2 0.00 0.00 0.00 83 1017.9
20260903180844 11 263 0.0 0.0 0.00 0.00 0.00 83 1017.9
20260903180348 11 263 0.0 0.0 0.00 0.00 0.00 82 1017.9
20260903175841 12 263 0.0 0.0 0.00 0.00 0.00 82 1017.9
20260903175335 12 263 0.0 6.4 0.00 0.00 0.00 82 1017.9
20260903174832 12 263 1.6 8.0 0.00 0.00 0.00 82 1017.9
20260903174329 12 263 1.6 8.0 0.00 0.00 0.00 82 1018.1
20260903173826 12 263 1.6 8.0 0.00 0.00 0.00 82 1018.1
20260903173334 12 263 1.6 8.0 0.00 0.00 0.00 82 1018.1
20260903172826 12 263 1.6 6.4 0.00 0.00 0.00 81 1018.6
20260903172309 12 263 3.2 6.4 0.00 0.00 0.00 81 1018.6
20260903171812 12 263 3.2 6.4 0.00 0.00 0.00 81 1018.6
20260903171304 12 263 1.6 6.4 0.00 0.00 0.00 80 1018.4
20260903170744 12 263 1.6 3.2 0.00 0.00 0.00 79 1018.4
20260903170227 12 263 0.0 3.2 0.00 0.00 0.00 79 1018.4
20260903165042 12 263 0.0 1.6 0.00 0.00 0.00 78 1018.5
20260903164533 12 263 0.0 0.0 0.00 0.00 0.00 78 1018.5
20260903164043 12 263 0.0 0.0 0.00 0.00 0.00 78 1019.0
20260903163542 12 263 0.0 0.0 0.00 0.00 0.00 78 1019.0
20260903163046 12 263 0.0 0.0 0.00 0.00 0.00 78 1019.0
20260903162531 12 263 0.0 0.0 0.00 0.00 0.00 78 1018.9
20260903162013 12 263 0.0 0.0 0.00 0.00 0.00 78 1018.9
20260903161500 12 263 0.0 0.0 0.00 0.00 0.00 78 1018.9
20260903160940 12 263 1.6 4.8 0.00 0.00 0.00 78 1018.8
20260903160433 12 263 1.6 4.8 0.00 0.00 0.00 78 1018.8
20260903155310 11 263 0.0 3.2 0.00 0.00 0.00 78 1019.1
20260903154138 11 263 0.0 0.0 0.00 0.00 0.00 78 1019.3
20260903153635 11 263 0.0 0.0 0.00 0.00 0.00 78 1019.3
20260903153119 11 263 0.0 0.0 0.00 0.00 0.00 78 1019.3
20260903152616 12 263 0.0 0.0 0.00 0.00 0.00 77 1019.5
20260903152117 12 263 0.0 0.0 0.00 0.00 0.00 77 1019.5
20260903151618 12 263 0.0 0.0 0.00 0.00 0.00 77 1019.5
20260903145810 12 263 0.0 0.0 0.00 0.00 0.00 77 1019.9
20260903145305 12 263 0.0 0.0 0.00 0.00 0.00 77 1019.9
20260903144745 12 263 0.0 0.0 0.00 0.00 0.00 77 1019.9
20260903143643 12 263 0.0 0.0 0.00 0.00 0.00 77 1020.1
20260903142505 12 263 0.0 0.0 0.00 0.00 0.00 77 1020.3
20260903142010 12 263 0.0 0.0 0.00 0.00 0.00 76 1020.3
20260903140231 12 263 0.0 0.0 0.00 0.00 0.00 75 1020.4
20260903135728 12 263 0.0 0.0 0.00 0.00 0.00 75 1020.6
20260903135224 12 263 0.0 0.0 0.00 0.00 0.00 75 1020.6
20260903134734 12 263 0.0 0.0 0.00 0.00 0.00 75 1020.6
20260903134243 12 263 0.0 0.0 0.00 0.00 0.00 75 1020.7
20260903133732 12 263 0.0 0.0 0.00 0.00 0.00 74 1020.7
20260903133239 12 263 0.0 0.0 0.00 0.00 0.00 74 1020.7
20260903132742 13 263 0.0 0.0 0.00 0.00 0.00 74 1020.7
20260903132238 13 263 0.0 0.0 0.00 0.00 0.00 74 1020.7
20260903131743 13 263 0.0 0.0 0.00 0.00 0.00 74 1020.7
20260903130630 13 263 0.0 0.0 0.00 0.00 0.00 74 1020.8
20260903125516 13 263 0.0 0.0 0.00 0.00 0.00 74 1020.9
20260903125019 13 263 0.0 1.6 0.00 0.00 0.00 74 1020.9
20260903124526 13 263 0.0 0.0 0.00 0.00 0.00 74 1020.9
20260903123406 13 263 1.6 6.4 0.00 0.00 0.00 74 1020.9
20260903122249 13 263 0.0 4.8 0.00 0.00 0.00 74 1021.2
20260903121749 13 263 0.0 0.0 0.00 0.00 0.00 74 1021.2
20260903121229 13 263 0.0 0.0 0.00 0.00 0.00 74 1021.2
20260903120737 13 263 0.0 0.0 0.00 0.00 0.00 74 1021.2
20260903120243 13 263 0.0 0.0 0.00 0.00 0.00 74 1021.2
20260903115727 13 263 0.0 1.6 0.00 0.00 0.00 73 1021.2
20260903115219 13 263 0.0 0.0 0.00 0.00 0.00 73 1021.2
20260903114722 13 263 0.0 0.0 0.00 0.00 0.00 73 1021.2
20260903112954 13 263 0.0 0.0 0.00 0.00 0.00 73 1021.2
20260903111851 13 263 0.0 0.0 0.00 0.00 0.00 72 1021.1
20260903111340 13 263 0.0 0.0 0.00 0.00 0.00 72 1021.0
20260903110849 13 263 0.0 0.0 0.00 0.00 0.00 72 1021.0
20260903110342 13 263 0.0 0.0 0.00 0.00 0.00 72 1021.0
20260903105845 13 263 0.0 0.0 0.00 0.00 0.00 72 1020.9
20260903104735 13 263 0.0 0.0 0.00 0.00 0.00 72 1020.9
20260903104244 13 263 0.0 3.2 0.00 0.00 0.00 71 1020.7
20260903103123 13 263 0.0 0.0 0.00 0.00 0.00 71 1020.7
20260903102610 13 263 0.0 0.0 0.00 0.00 0.00 71 1020.6
20260903102051 14 263 0.0 0.0 0.00 0.00 0.00 70 1020.6
20260903101557 14 263 0.0 0.0 0.00 0.00 0.00 70 1020.6
20260903101050 14 263 0.0 0.0 0.00 0.00 0.00 69 1020.4
20260903100540 14 263 0.0 0.0 0.00 0.00 0.00 69 1020.4
20260903100044 14 263 0.0 1.6 0.00 0.00 0.00 69 1020.4
20260903094914 14 263 0.0 6.4 0.00 0.00 0.00 68 1020.2
20260903094354 14 263 1.6 6.4 0.00 0.00 0.00 68 1020.3
20260903093838 14 263 1.6 8.0 0.00 0.00 0.00 68 1020.3
20260903093327 14 263 3.2 8.0 0.00 0.00 0.00 67 1020.3
20260903092822 14 263 3.2 9.7 0.00 0.00 0.00 67 1020.2
20260903092314 14 263 3.2 9.7 0.00 0.00 0.00 67 1020.2
20260903091202 14 263 3.2 9.7 0.00 0.00 0.00 66 1019.9
20260903090706 15 263 3.2 6.4 0.00 0.00 0.00 67 1019.9
20260903090147 15 263 1.6 6.4 0.00 0.00 0.00 67 1019.9
20260903085016 15 263 1.6 8.0 0.00 0.00 0.00 67 1020.0
20260903084500 15 263 3.2 8.0 0.00 0.00 0.00 67 1020.0
20260903083953 15 263 3.2 8.0 0.00 0.00 0.00 67 1019.7
20260903083451 15 263 1.6 8.0 0.00 0.00 0.00 66 1019.7
20260903082932 15 263 3.2 8.0 0.00 0.00 0.00 66 1019.7
20260903081808 15 263 3.2 8.0 0.00 0.00 0.00 65 1019.6
20260903081305 15 263 3.2 8.0 0.00 0.00 0.00 65 1019.5
20260903080753 15 263 3.2 8.0 0.00 0.00 0.00 65 1019.5
20260903080251 15 263 3.2 6.4 0.00 0.00 0.00 64 1019.5
20260903075756 15 263 3.2 8.0 0.00 0.00 0.00 64 1019.4
20260903075306 15 263 3.2 8.0 0.00 0.00 0.00 63 1019.4
20260903074803 15 263 4.8 14.5 0.00 0.00 0.00 63 1019.4
20260903074251 15 263 4.8 14.5 0.00 0.00 0.00 63 1019.2
20260903073754 15 263 4.8 14.5 0.00 0.00 0.00 62 1019.2
20260903073236 15 263 4.8 14.5 0.00 0.00 0.00 62 1019.2
20260903072726 15 263 3.2 9.7 0.00 0.00 0.00 62 1019.1